Lakeville, MN

8:13 PM CDT on July 20, 2017 (GMT -0500)
Airlake

Weather History for KLVN - November, 2012

Change the Weather History Date:

Wednesday, November 14, 2012

  Actual Average Record
Temperature  
Mean Temperature 39 °F -  
Max Temperature 50 °F 39 °F 71 °F (1990)
Min Temperature 28 °F 24 °F -2 °F (1959)
Degree Days  
Heating Degree Days 26    
Moisture  
Dew Point 30 °F    
Average Humidity 76    
Maximum Humidity 100    
Minimum Humidity 47    
Precipitation  
Precipitation 0.00 in - - ()
Sea Level Pressure  
Sea Level Pressure 30.22 in    
Wind  
Wind Speed 1 mph (South)    
Max Wind Speed 7 mph    
Max Gust Speed -    
Visibility 10 miles    
Events      
Averages and records for this station are not official NWS values.
T = Trace of Precipitation, MM = Missing Value Source: NWS Daily Summary

Daily Weather History Graph

Daily Weather History Graph

Search for Another Location

Airport or City:

Trip Planner

Search our weather history database for the weather conditions in past years. The results will help you decide how hot, cold, wet, or windy it might be!

Date:

Astronomy

Nov. 14, 2012 Rise Set
Actual Time 7:08 AM CST 4:45 PM CST
Civil Twilight 6:37 AM CST 5:16 PM CST
Nautical Twilight 6:02 AM CST 5:52 PM CST
Astronomical Twilight 5:27 AM CST 6:26 PM CST
Moon 8:01 AM CST (11/14) 5:32 PM CST (11/14)
Length of Visible Light 10h 39m
Length of Day
9h 36m
New Moon, 1% of the Moon is Illuminated
Nov 14
New Moon
Nov 20
First Quarter
Nov 28
Full
Dec 6
Last Quarter
Dec 13
New

Hourly Weather History & Observations

Time (CST) Temp. Windchill Dew Point Humidity Pressure Visibility Wind Dir Wind Speed Gust Speed Precip Events Conditions
12:11 AM 33.8 °F - 26.6 °F 75% 30.27 in 10.0 mi Calm Calm - N/A   Unknown
12:31 AM 35.6 °F - 26.6 °F 70% 30.26 in 10.0 mi Calm Calm - N/A   Unknown
12:51 AM 33.8 °F - 26.6 °F 75% 30.26 in 10.0 mi Calm Calm - N/A   Unknown
1:11 AM 35.6 °F - 26.6 °F 70% 30.26 in 10.0 mi Calm Calm - N/A   Unknown
1:31 AM 32.0 °F - 26.6 °F 80% 30.26 in 10.0 mi Calm Calm - N/A   Unknown
1:51 AM 32.0 °F - 26.6 °F 80% 30.26 in 10.0 mi Calm Calm - N/A   Mostly Cloudy
2:11 AM 32.0 °F - 28.4 °F 87% 30.26 in 10.0 mi Calm Calm - N/A   Unknown
2:31 AM 32.0 °F - 28.4 °F 87% 30.26 in 10.0 mi Calm Calm - N/A   Unknown
2:50 AM 32.0 °F - 28.4 °F 87% 30.26 in 10.0 mi Calm Calm - N/A   Unknown
3:11 AM 30.2 °F - 28.4 °F 93% 30.25 in 10.0 mi Calm Calm - N/A   Unknown
3:31 AM 30.2 °F 25.4 °F 28.4 °F 93% 30.25 in 10.0 mi ESE 4.6 mph - N/A   Unknown
3:50 AM 30.2 °F - 28.4 °F 93% 30.25 in 10.0 mi Calm Calm - N/A   Unknown
4:11 AM 30.2 °F - 28.4 °F 93% 30.25 in 10.0 mi Calm Calm - N/A   Unknown
4:30 AM 32.0 °F - 28.4 °F 87% 30.25 in 10.0 mi Calm Calm - N/A   Unknown
4:51 AM 32.0 °F - 28.4 °F 87% 30.25 in 10.0 mi Calm Calm - N/A   Unknown
5:11 AM 33.8 °F - 28.4 °F 81% 30.25 in 10.0 mi Calm Calm - N/A   Unknown
5:30 AM 33.8 °F - 28.4 °F 81% 30.25 in 10.0 mi Calm Calm - N/A   Unknown
5:51 AM 32.0 °F - 28.4 °F 87% 30.25 in 10.0 mi Calm Calm - N/A   Unknown
6:11 AM 32.0 °F - 28.4 °F 87% 30.25 in 10.0 mi Calm Calm - N/A   Unknown
6:31 AM 30.2 °F - 28.4 °F 93% 30.25 in 10.0 mi Calm Calm - N/A   Unknown
6:51 AM 28.4 °F - 28.4 °F 100% 30.25 in 10.0 mi Calm Calm - N/A   Unknown
7:14 AM 30.2 °F - 28.4 °F 93% 30.25 in 10.0 mi Calm Calm - N/A   Unknown
7:34 AM 28.4 °F - 26.6 °F 93% 30.26 in 10.0 mi Calm Calm - N/A   Unknown
7:53 AM 28.4 °F - 28.4 °F 100% 30.26 in 10.0 mi Calm Calm - N/A   Unknown
8:14 AM 28.4 °F - 26.6 °F 93% 30.26 in 10.0 mi Calm Calm - N/A   Clear
8:34 AM 32.0 °F 28.7 °F 28.4 °F 87% 30.26 in 10.0 mi South 3.5 mph - N/A   Clear
8:53 AM 35.6 °F 32.8 °F 30.2 °F 81% 30.26 in 10.0 mi South 3.5 mph - N/A   Clear
9:14 AM 35.6 °F 32.8 °F 30.2 °F 81% 30.26 in 10.0 mi SW 3.5 mph - N/A   Clear
9:33 AM 37.4 °F 33.8 °F 30.2 °F 75% 30.26 in 10.0 mi South 4.6 mph - N/A   Clear
9:54 AM 37.4 °F 33.8 °F 30.2 °F 75% 30.26 in 10.0 mi South 4.6 mph - N/A   Clear
10:14 AM 37.4 °F 34.9 °F 30.2 °F 75% 30.26 in 10.0 mi SSW 3.5 mph - N/A   Clear
10:34 AM 37.4 °F 32.8 °F 32.0 °F 81% 30.26 in 10.0 mi South 5.8 mph - N/A   Clear
10:54 AM 39.2 °F 37.0 °F 32.0 °F 75% 30.26 in 10.0 mi South 3.5 mph - N/A   Clear
11:14 AM 41.0 °F 38.0 °F 32.0 °F 70% 30.25 in 10.0 mi South 4.6 mph - N/A   Clear
11:34 AM 42.8 °F 41.1 °F 32.0 °F 66% 30.25 in 10.0 mi SSW 3.5 mph - N/A   Clear
11:54 AM 44.6 °F 41.4 °F 33.8 °F 66% 30.24 in 10.0 mi South 5.8 mph - N/A   Clear
12:13 PM 46.4 °F 44.3 °F 33.8 °F 62% 30.23 in 10.0 mi South 4.6 mph - N/A   Clear
12:34 PM 46.4 °F 44.3 °F 33.8 °F 62% 30.22 in 10.0 mi South 4.6 mph - N/A   Clear
12:54 PM 46.4 °F 45.2 °F 33.8 °F 62% 30.22 in 10.0 mi South 3.5 mph - N/A   Clear
1:13 PM 48.2 °F - 32.0 °F 54% 30.22 in 10.0 mi South 5.8 mph - N/A   Clear
1:34 PM 50.0 °F - 30.2 °F 47% 30.21 in 10.0 mi SW 3.5 mph - N/A   Clear
1:54 PM 48.2 °F - 30.2 °F 50% 30.21 in 10.0 mi South 4.6 mph - N/A   Clear
2:13 PM 48.2 °F - 30.2 °F 50% 30.20 in 10.0 mi South 5.8 mph - N/A   Clear
2:34 PM 48.2 °F - 30.2 °F 50% 30.20 in 10.0 mi South 4.6 mph - N/A   Clear
2:54 PM 48.2 °F - 32.0 °F 54% 30.20 in 10.0 mi South 6.9 mph - N/A   Clear
3:13 PM 48.2 °F - 32.0 °F 54% 30.19 in 10.0 mi South 5.8 mph - N/A   Unknown
3:34 PM 46.4 °F 42.9 °F 33.8 °F 62% 30.20 in 10.0 mi South 6.9 mph - N/A   Scattered Clouds
3:54 PM 46.4 °F 43.5 °F 33.8 °F 62% 30.20 in 10.0 mi South 5.8 mph - N/A   Unknown
4:13 PM 46.4 °F 45.2 °F 33.8 °F 62% 30.19 in 10.0 mi South 3.5 mph - N/A   Unknown
4:34 PM 44.6 °F 43.1 °F 32.0 °F 61% 30.18 in 10.0 mi SSE 3.5 mph - N/A   Unknown
4:54 PM 42.8 °F - 32.0 °F 66% 30.18 in 10.0 mi Calm Calm - N/A   Clear
5:14 PM 41.0 °F - 30.2 °F 65% 30.18 in 10.0 mi Calm Calm - N/A   Clear
5:34 PM 42.8 °F - 30.2 °F 61% 30.18 in 10.0 mi Calm Calm - N/A   Clear
5:54 PM 41.0 °F - 30.2 °F 65% 30.17 in 10.0 mi Calm Calm - N/A   Clear
6:14 PM 39.2 °F - 30.2 °F 70% 30.17 in 10.0 mi Calm Calm - N/A   Clear
6:34 PM 37.4 °F - 30.2 °F 75% 30.18 in 10.0 mi Calm Calm - N/A   Clear
6:54 PM 37.4 °F - 30.2 °F 75% 30.17 in 10.0 mi Calm Calm - N/A   Clear
7:14 PM 39.2 °F - 30.2 °F 70% 30.17 in 10.0 mi Calm Calm - N/A   Clear
7:34 PM 35.6 °F - 30.2 °F 81% 30.17 in 10.0 mi Calm Calm - N/A   Clear
7:54 PM 33.8 °F - 30.2 °F 87% 30.17 in 10.0 mi Calm Calm - N/A   Clear
8:34 PM 35.6 °F - 30.2 °F 81% 30.16 in 10.0 mi Calm Calm - N/A   Clear
8:54 PM 35.6 °F - 30.2 °F 81% 30.16 in 10.0 mi Calm Calm - N/A   Clear
9:14 PM 33.8 °F - 30.2 °F 87% 30.16 in 10.0 mi Calm Calm - N/A   Clear
9:34 PM 33.8 °F - 30.2 °F 87% 30.16 in 10.0 mi Calm Calm - N/A   Clear
9:54 PM 33.8 °F - 30.2 °F 87% 30.17 in 10.0 mi Calm Calm - N/A   Clear
10:14 PM 37.4 °F - 30.2 °F 75% 30.16 in 10.0 mi Calm Calm - N/A   Clear
10:34 PM 35.6 °F - 30.2 °F 81% 30.16 in 10.0 mi Calm Calm - N/A   Clear
10:54 PM 33.8 °F - 30.2 °F 87% 30.16 in 10.0 mi Calm Calm - N/A   Clear
11:02 PM 32.0 °F - 28.4 °F 87% 30.16 in 10.0 mi Calm Calm - N/A   Unknown
11:36 PM 37.4 °F 33.8 °F 32.0 °F 81% 30.15 in 10.0 mi South 4.6 mph - N/A   Unknown
11:54 PM 37.4 °F - 32.0 °F 81% 30.15 in 10.0 mi Calm Calm - N/A   Unknown